Weather History for Durango, CO

Change the Weather History Date:

Tuesday, February 4, 2014

  Actual Average Record
Temperature  
Mean Temperature 21 °F 26 °F  
Max Temperature 30 °F 40 °F 53 °F (1970)
Min Temperature 11 °F 12 °F -10 °F (1979)
Degree Days  
Heating Degree Days 44 39  
Month to date heating degree days 161 158  
Since 1 July heating degree days 4234 4312  
Cooling Degree Days 0 0  
Month to date cooling degree days 0 0  
Year to date cooling degree days 0 0  
Moisture  
Dew Point 20 °F    
Average Humidity 84    
Maximum Humidity 100    
Minimum Humidity 68    
Precipitation  
Precipitation 0.02 in 0.04 in 0.80 in (1976)
Month to date precipitation 0.06 0.15  
Year to date precipitation 0.19 1.27  
Sea Level Pressure  
Sea Level Pressure 29.84 in    
Wind  
Wind Speed 9 mph (West)    
Max Wind Speed 26 mph    
Max Gust Speed 32 mph    
Visibility 5 miles    
Events Fog , Snow    
T = Trace of Precipitation, MM = Missing Value Source: NWS Daily Summary

Daily Weather History Graph

Daily Weather History Graph

Search for Another Location

Airport:

Trip Planner

Search our weather history database for the weather conditions in past years. The results will help you decide how hot, cold, wet, or windy it might be!

Date:

Astronomy

Feb. 04, 2014 Rise Set
Actual Time 7:11 AM MST 5:39 PM MST
Civil Twilight 6:43 AM MST 6:06 PM MST
Nautical Twilight 6:12 AM MST 6:37 PM MST
Astronomical Twilight 5:42 AM MST 7:07 PM MST
Moon 9:59 AM MST (2/4) 11:27 PM MST (2/4)
Length of Visible Light 11h 22m
Length of Day
10h 28m
Waxing Crescent, 29% of the Moon is Illuminated
Feb 4
Waxing Crescent
Feb 6
First Quarter
Feb 14
Full
Feb 22
Last Quarter
Mar 1
New

Hourly Weather History & Observations

Time (MST) Temp. Windchill Dew Point Humidity Pressure Visibility Wind Dir Wind Speed Gust Speed Precip Events Conditions
12:37 AM 24.8 °F - 24.8 °F 100% 29.75 in 2.0 mi Calm Calm - 0.00 in Snow Light Snow
12:53 AM 24.1 °F - 24.1 °F 100% 29.83 in 1.8 mi Calm Calm - 0.00 in Snow Light Snow
12:58 AM 24.8 °F - 24.8 °F 100% 29.75 in 2.0 mi Calm Calm - 0.00 in Snow Light Snow
1:07 AM 24.8 °F - 24.8 °F 100% 29.75 in 1.5 mi Calm Calm - 0.00 in Snow Light Snow
1:11 AM 24.8 °F - 23.0 °F 93% 29.75 in 0.8 mi Calm Calm - 0.00 in Snow Light Snow
1:24 AM 24.8 °F - 23.0 °F 93% 29.75 in 1.2 mi Calm Calm - 0.01 in Snow Light Snow
1:33 AM 24.8 °F - 23.0 °F 93% 29.75 in 1.2 mi Calm Calm - 0.01 in Snow Light Snow
1:47 AM 24.8 °F - 24.8 °F 100% 29.75 in 1.5 mi Calm Calm - 0.01 in Snow Light Snow
1:53 AM 25.0 °F - 24.1 °F 96% 29.82 in 1.5 mi Calm Calm - 0.01 in Snow Light Snow
2:08 AM 24.8 °F - 23.0 °F 93% 29.74 in 2.5 mi Calm Calm - 0.01 in Snow Light Snow
2:17 AM 24.8 °F - 23.0 °F 93% 29.74 in 1.8 mi Calm Calm - 0.01 in Snow Light Snow
2:19 AM 24.8 °F - 23.0 °F 93% 29.74 in 2.0 mi Calm Calm - 0.01 in Snow Light Snow
2:27 AM 23.0 °F - 23.0 °F 100% 29.74 in 5.0 mi Calm Calm - 0.01 in Snow Light Snow
2:53 AM 23.0 °F 17.0 °F 21.9 °F 96% 29.82 in 7.0 mi WSW 4.6 mph - 0.01 in Snow Light Snow
3:53 AM 24.1 °F - 21.9 °F 91% 29.83 in 10.0 mi Calm Calm - 0.00 in   Overcast
4:03 AM 24.8 °F - 21.2 °F 86% 29.75 in 10.0 mi Calm Calm - N/A   Overcast
4:53 AM 23.0 °F 12.4 °F 21.0 °F 92% 29.85 in 10.0 mi WSW 10.4 mph - N/A   Overcast
5:53 AM 21.9 °F 13.4 °F 19.0 °F 89% 29.86 in 10.0 mi SW 6.9 mph - N/A   Mostly Cloudy
6:10 AM 23.0 °F 13.9 °F 19.4 °F 86% 29.76 in 10.0 mi SW 8.1 mph - N/A   Mostly Cloudy
6:33 AM 21.2 °F 13.6 °F 19.4 °F 93% 29.76 in 10.0 mi SW 5.8 mph - N/A   Overcast
6:53 AM 23.0 °F 13.9 °F 21.0 °F 92% 29.87 in 10.0 mi SW 8.1 mph - N/A   Overcast
7:11 AM 24.8 °F 14.0 °F 21.2 °F 86% 29.77 in 7.0 mi WSW 11.5 mph - 0.00 in Snow Light Snow
7:19 AM 23.0 °F 12.4 °F 21.2 °F 93% 29.77 in 4.0 mi WSW 10.4 mph - 0.00 in Snow Light Snow
7:37 AM 23.0 °F 13.9 °F 19.4 °F 86% 29.78 in 6.0 mi WSW 8.1 mph - 0.00 in Snow Light Snow
7:44 AM 23.0 °F 11.7 °F 21.2 °F 93% 29.78 in 1.8 mi WSW 11.5 mph - 0.00 in Snow Light Snow
7:53 AM 23.0 °F 12.4 °F 21.0 °F 92% 29.90 in 2.5 mi WSW 10.4 mph - 0.00 in Snow Light Snow
8:00 AM 24.8 °F 16.9 °F 21.2 °F 86% 29.78 in 9.0 mi WSW 6.9 mph - 0.00 in   Overcast
8:07 AM 24.8 °F 15.3 °F 21.2 °F 86% 29.79 in 10.0 mi WSW 9.2 mph - 0.00 in   Overcast
8:37 AM 24.8 °F 12.9 °F 19.4 °F 80% 29.79 in 10.0 mi WSW 13.8 mph 20.7 mph 0.00 in   Overcast
8:53 AM 24.1 °F 11.5 °F 19.9 °F 84% 29.90 in 10.0 mi WSW 15.0 mph - 0.00 in   Overcast
9:48 AM 26.6 °F 14.3 °F 21.2 °F 80% 29.80 in 10.0 mi WSW 16.1 mph - N/A   Mostly Cloudy
9:53 AM 27.0 °F 13.2 °F 21.9 °F 81% 29.91 in 10.0 mi WSW 20.7 mph 26.5 mph N/A   Mostly Cloudy
10:24 AM 26.6 °F 13.8 °F 21.2 °F 80% 29.81 in 10.0 mi WSW 17.3 mph - 0.00 in   Scattered Clouds
10:36 AM 26.6 °F 14.7 °F 21.2 °F 80% 29.81 in 10.0 mi WSW 15.0 mph 23.0 mph 0.00 in   Mostly Cloudy
10:53 AM 25.0 °F 12.6 °F 21.9 °F 88% 29.93 in 9.0 mi WSW 15.0 mph - 0.00 in   Mostly Cloudy
11:01 AM 24.8 °F 10.3 °F 21.2 °F 86% 29.82 in 2.5 mi WSW 20.7 mph 28.8 mph 0.00 in Snow Light Snow
11:06 AM 24.8 °F 10.3 °F 21.2 °F 86% 29.81 in 1.8 mi WSW 20.7 mph 28.8 mph 0.00 in Snow Light Snow
11:17 AM 26.6 °F 13.8 °F 21.2 °F 80% 29.82 in 2.0 mi WSW 17.3 mph 24.2 mph 0.00 in Snow Light Snow
11:24 AM 24.8 °F 8.7 °F 21.2 °F 86% 29.82 in 1.0 mi West 26.5 mph 31.1 mph 0.00 in Snow Light Snow
11:29 AM 24.8 °F 9.6 °F 19.4 °F 80% 29.82 in 0.5 mi West 23.0 mph 32.2 mph 0.00 in Fog , Snow Snow
11:36 AM 23.0 °F 8.0 °F 21.2 °F 93% 29.82 in 0.2 mi West 20.7 mph 28.8 mph 0.00 in Fog , Snow Snow
11:48 AM 23.0 °F 9.6 °F 21.2 °F 93% 29.82 in 0.2 mi WNW 16.1 mph 25.3 mph 0.00 in Fog , Snow Snow
11:53 AM 23.0 °F 10.1 °F 21.0 °F 92% 29.94 in 0.2 mi WNW 15.0 mph - 0.00 in Fog , Snow Snow
11:55 AM 23.0 °F 9.6 °F 21.2 °F 93% 29.81 in 0.5 mi WNW 16.1 mph - 0.00 in Fog , Snow Snow
12:00 PM 24.8 °F 13.4 °F 19.4 °F 80% 29.81 in 1.5 mi WNW 12.7 mph - 0.00 in Snow Light Snow
12:02 PM 24.8 °F 13.4 °F 19.4 °F 80% 29.81 in 4.0 mi WNW 12.7 mph - 0.00 in Snow Light Snow
12:14 PM 26.6 °F 15.2 °F 17.6 °F 69% 29.80 in 10.0 mi WNW 13.8 mph 21.9 mph 0.00 in   Mostly Cloudy
12:33 PM 26.6 °F 12.4 °F 19.4 °F 74% 29.80 in 1.8 mi WSW 21.9 mph 28.8 mph 0.00 in Snow Light Snow
12:35 PM 24.8 °F 10.7 °F 19.4 °F 80% 29.80 in 1.2 mi WSW 19.6 mph 28.8 mph 0.00 in Snow Light Snow
12:46 PM 24.8 °F 12.9 °F 21.2 °F 86% 29.80 in 2.0 mi West 13.8 mph 25.3 mph 0.00 in Snow Light Snow
12:53 PM 26.1 °F 16.2 °F 21.9 °F 84% 29.91 in 9.0 mi West 10.4 mph 19.6 mph 0.00 in   Mostly Cloudy
1:11 PM 24.8 °F 12.4 °F 21.2 °F 86% 29.79 in 2.0 mi NW 15.0 mph 27.6 mph 0.00 in Snow Light Snow
1:20 PM 28.4 °F 18.5 °F 21.2 °F 74% 29.79 in 9.0 mi WNW 11.5 mph 19.6 mph 0.00 in   Mostly Cloudy
1:53 PM 28.9 °F 18.6 °F 21.0 °F 72% 29.87 in 10.0 mi NW 12.7 mph 20.7 mph 0.00 in   Mostly Cloudy
2:16 PM 26.6 °F 12.0 °F 19.4 °F 74% 29.79 in 1.2 mi WSW 23.0 mph 28.8 mph 0.00 in Snow Light Snow
2:20 PM 24.8 °F 12.9 °F 21.2 °F 86% 29.79 in 0.8 mi WSW 13.8 mph 28.8 mph 0.00 in Snow Light Snow
2:27 PM 26.6 °F 15.7 °F 23.0 °F 86% 29.79 in 1.5 mi WSW 12.7 mph - 0.00 in Snow Light Snow
2:29 PM 26.6 °F 15.2 °F 23.0 °F 86% 29.79 in 4.0 mi WSW 13.8 mph - 0.00 in Snow Light Snow
2:42 PM 26.6 °F 16.2 °F 19.4 °F 74% 29.79 in 5.0 mi West 11.5 mph 25.3 mph 0.00 in Snow Light Snow
2:53 PM 27.0 °F 16.1 °F 21.0 °F 78% 29.90 in 5.0 mi WNW 12.7 mph 19.6 mph 0.00 in Snow Light Snow
3:05 PM 26.6 °F 13.4 °F 19.4 °F 74% 29.80 in 9.0 mi West 18.4 mph 28.8 mph 0.00 in   Mostly Cloudy
3:51 PM 26.6 °F 15.2 °F 21.2 °F 80% 29.81 in 9.0 mi WNW 13.8 mph - 0.00 in Snow Light Snow
3:53 PM 27.0 °F 14.3 °F 21.0 °F 78% 29.91 in 9.0 mi West 17.3 mph 23.0 mph 0.00 in Snow Light Snow
3:56 PM 26.6 °F 12.0 °F 19.4 °F 74% 29.81 in 1.2 mi West 23.0 mph 29.9 mph 0.00 in Snow Light Snow
4:03 PM 24.8 °F 11.9 °F 21.2 °F 86% 29.81 in 0.5 mi WNW 16.1 mph 29.9 mph 0.00 in Fog , Snow Snow
4:09 PM 24.8 °F 13.4 °F 21.2 °F 86% 29.81 in 1.5 mi WNW 12.7 mph 21.9 mph 0.00 in Snow Light Snow
4:11 PM 24.8 °F 14.6 °F 21.2 °F 86% 29.81 in 4.0 mi West 10.4 mph - 0.00 in Snow Light Snow
4:53 PM 27.0 °F 16.7 °F 17.1 °F 66% 29.94 in 10.0 mi West 11.5 mph - 0.00 in   Clear
5:34 PM 24.8 °F 11.9 °F 17.6 °F 74% 29.85 in 2.0 mi West 16.1 mph 28.8 mph 0.00 in Snow Light Snow
5:49 PM 23.0 °F 12.4 °F 17.6 °F 80% 29.85 in 9.0 mi WNW 10.4 mph - 0.00 in   Mostly Cloudy
5:53 PM 23.0 °F 14.7 °F 18.0 °F 81% 29.99 in 10.0 mi West 6.9 mph - 0.00 in   Scattered Clouds
6:53 PM 24.1 °F 13.1 °F 16.0 °F 71% 30.01 in 10.0 mi West 11.5 mph - N/A   Overcast
7:53 PM 19.9 °F 10.1 °F 12.9 °F 74% 30.05 in 10.0 mi SSW 8.1 mph - N/A   Clear
8:53 PM 21.0 °F 13.4 °F 12.9 °F 71% 30.06 in 10.0 mi WNW 5.8 mph - N/A   Partly Cloudy
9:53 PM 19.0 °F 12.3 °F 12.9 °F 77% 30.09 in 10.0 mi North 4.6 mph - N/A   Clear
10:53 PM 15.1 °F 4.2 °F 10.0 °F 80% 30.14 in 10.0 mi North 8.1 mph - N/A   Clear
11:53 PM 12.9 °F 6.9 °F 9.0 °F 84% 30.17 in 10.0 mi North 3.5 mph - N/A   Clear